IV3IYL-13 Weather Reports


time (UTC)temp
C
wind
direction
speed
KPH
gust
KPH
rain 1hr
cm
rain 24hr
cm
rain mn
cm
humidity
%
barometer
mb
20260507124551 20 0.0 0.0 0.00 0.00 0.00 73 1012.3
20260507123551 20 0.0 0.0 0.00 0.00 0.00 73 1012.4
20260507122550 20 0.0 0.0 0.00 0.00 0.00 70 1012.3
20260507121550 19 0.0 0.0 0.00 0.00 0.00 73 1012.4
20260507120551 19 0.0 0.0 0.00 0.00 0.00 75 1012.5
20260507115621 20 0.0 0.0 0.00 0.00 0.00 73 1012.6
20260507114606 18 0.0 0.0 0.00 0.00 0.00 83 1012.7
20260507113550 18 0.0 0.0 0.00 0.00 0.00 82 1012.8
20260507112551 19 0.0 0.0 0.00 0.00 0.00 80 1012.7
20260507111550 19 0.0 0.0 0.00 0.00 0.00 79 1012.8
20260507110550 18 0.0 0.0 0.00 0.00 0.00 77 1012.8
20260507105550 18 0.0 0.0 0.00 0.00 0.00 90 1013.0
20260507104550 18 0.0 0.0 0.00 0.00 0.00 92 1013.0
20260507103550 18 0.0 0.0 0.00 0.00 0.00 97 1013.1
20260507102550 18 0.0 0.0 0.00 0.00 0.00 95 1013.4
20260507101550 19 0.0 0.0 0.00 0.00 0.00 92 1013.2
20260507100550 18 0.0 0.0 0.00 0.00 0.00 94 1013.3
20260507095605 18 0.0 0.0 0.00 0.00 0.00 10 1013.3
20260507094550 18 0.0 0.0 0.00 0.00 0.00 10 1013.3
20260507093550 18 0.0 0.0 0.00 0.00 0.00 10 1013.3
20260507092550 18 0.0 0.0 0.00 0.00 0.00 10 1013.3
20260507091550 17 0.0 0.0 0.00 0.00 0.00 10 1013.2
20260507090550 17 0.0 0.0 0.00 0.00 0.00 10 1013.2
20260507085605 17 0.0 0.0 0.00 0.00 0.00 10 1013.3
20260507084550 17 0.0 0.0 0.00 0.00 0.00 10 1013.2
20260507083550 17 0.0 0.0 0.00 0.00 0.00 10 1013.2
20260507082550 16 0.0 0.0 0.00 0.00 0.00 10 1013.1
20260507081550 16 0.0 0.0 0.00 0.00 0.00 10 1013.2
20260507080550 16 0.0 0.0 0.00 0.00 0.00 10 1013.1
20260507075605 16 0.0 0.0 0.00 0.00 0.00 10 1013.1
20260507074550 15 0.0 0.0 0.00 0.00 0.00 10 1013.1
20260507073550 15 0.0 0.0 0.00 0.00 0.00 10 1013.0
20260507072550 15 0.0 0.0 0.00 0.00 0.00 10 1013.0
20260507071549 15 0.0 0.0 0.00 0.00 0.00 10 1013.0
20260507070549 15 0.0 0.0 0.00 0.00 0.00 10 1013.0
20260507065549 15 0.0 0.0 0.00 0.00 0.00 10 1013.0
20260507064549 15 0.0 0.0 0.00 0.00 0.00 10 1013.0
20260507063549 15 0.0 0.0 0.00 0.00 0.00 10 1013.0
20260507062605 15 0.0 0.0 0.00 0.00 0.00 10 1012.9
20260507061549 14 0.0 0.0 0.00 0.00 0.00 10 1012.9
20260507060549 14 0.0 0.0 0.00 0.00 0.00 10 1012.9
20260507055549 14 0.0 0.0 0.00 0.00 0.00 10 1012.7
20260507054549 13 0.0 0.0 0.00 0.00 0.00 10 1012.5
20260507053549 13 0.0 0.0 0.00 0.00 0.00 10 1012.4
20260507052549 13 0.0 0.0 0.00 0.00 0.00 10 1012.2
20260507051549 12 0.0 0.0 0.00 0.00 0.00 10 1012.2
20260507050549 12 0.0 0.0 0.00 0.00 0.00 10 1012.1
20260507045549 12 0.0 0.0 0.00 0.00 0.00 10 1012.1
20260507044549 12 0.0 0.0 0.00 0.00 0.00 10 1011.9
20260507043549 12 0.0 0.0 0.00 0.00 0.00 10 1011.8
20260507042549 12 0.0 0.0 0.00 0.00 0.00 10 1011.8
20260507041604 12 0.0 0.0 0.00 0.00 0.00 10 1011.7
20260507040549 12 0.0 0.0 0.00 0.00 0.00 10 1011.5
20260507035549 12 0.0 0.0 0.00 0.00 0.00 10 1011.5
20260507034549 12 0.0 0.0 0.00 0.00 0.00 10 1011.6
20260507033549 12 0.0 0.0 0.00 0.00 0.00 10 1011.5
20260507032549 12 0.0 0.0 0.00 0.00 0.00 10 1011.6
20260507031549 12 0.0 0.0 0.00 0.00 0.00 10 1011.5
20260507030549 13 0.0 0.0 0.00 0.00 0.00 10 1011.6
20260507025609 13 0.0 0.0 0.00 0.00 0.00 10 1011.5
20260507024549 13 0.0 0.0 0.00 0.00 0.00 10 1011.7
20260507023604 13 0.0 0.0 0.00 0.00 0.00 10 1011.5
20260507022548 13 0.0 0.0 0.00 0.00 0.00 10 1011.5
20260507021549 13 0.0 0.0 0.00 0.00 0.00 10 1011.5
20260507020549 13 0.0 0.0 0.00 0.00 0.00 10 1011.4
20260507015548 14 0.0 0.0 0.00 0.00 0.00 10 1011.5
20260507014549 14 0.0 0.0 0.00 0.00 0.00 10 1011.5
20260507013549 13 0.0 0.0 0.00 0.00 0.00 10 1011.5
20260507012548 13 0.0 0.0 0.00 0.00 0.00 10 1011.5
20260507011548 13 0.0 0.0 0.00 0.00 0.00 10 1011.5
20260507010549 13 0.0 0.0 0.00 0.00 0.00 10 1011.5
20260507005548 13 0.0 0.0 0.00 0.00 0.00 10 1011.5
20260507004549 13 0.0 0.0 0.00 0.00 0.00 10 1011.5
20260507003548 13 0.0 0.0 0.00 0.00 0.00 10 1011.4
20260507002603 14 0.0 0.0 0.00 0.00 0.00 10 1011.6
20260507001548 13 0.0 0.0 0.00 0.00 0.00 10 1011.6
20260507000548 13 0.0 0.0 0.00 0.00 0.00 10 1011.5
20260506235548 13 0.0 0.0 0.00 0.00 0.00 10 1011.6
20260506234548 14 0.0 0.0 0.00 0.00 0.00 10 1011.6
20260506233548 14 0.0 0.0 0.00 0.00 0.00 10 1011.7
20260506232548 13 0.0 0.0 0.00 0.00 0.00 10 1011.7
20260506231558 13 0.0 0.0 0.00 0.00 0.00 10 1011.6
20260506230608 13 0.0 0.0 0.00 0.00 0.00 10 1011.6
20260506225548 13 0.0 0.0 0.00 0.00 0.00 10 1011.6
20260506224548 13 0.0 0.0 0.00 0.00 0.00 10 1011.6
20260506223548 13 0.0 0.0 0.00 0.00 0.00 10 1011.7
20260506222553 13 0.0 0.0 0.00 0.00 0.00 10 1011.7
20260506221548 13 0.0 0.0 0.00 0.00 0.00 10 1011.6
20260506220548 13 0.0 0.0 0.00 0.00 0.00 10 1011.6
20260506215548 14 0.0 0.0 0.00 0.00 0.00 10 1011.5
20260506214548 14 0.0 0.0 0.00 0.00 0.00 10 1011.6
20260506213603 14 0.0 0.0 0.00 0.00 0.00 10 1011.7
20260506212618 14 0.0 0.0 0.00 0.00 0.00 10 1011.6
20260506211547 14 0.0 0.0 0.00 0.00 0.00 10 1011.7
20260506210547 14 0.0 0.0 0.00 0.00 0.00 10 1011.7
20260506205547 14 0.0 0.0 0.00 0.00 0.00 10 1011.6
20260506204548 14 0.0 0.0 0.00 0.00 0.00 10 1011.6
20260506203547 14 0.0 0.0 0.00 0.00 0.00 10 1011.5
20260506202547 14 0.0 0.0 0.00 0.00 0.00 10 1011.5
20260506201548 15 0.0 0.0 0.00 0.00 0.00 10 1011.4
20260506200547 15 0.0 0.0 0.00 0.00 0.00 10 1011.2
20260506195548 15 0.0 0.0 0.00 0.00 0.00 10 1011.2
20260506194552 15 0.0 0.0 0.00 0.00 0.00 10 1011.1
20260506193547 15 0.0 0.0 0.00 0.00 0.00 10 1011.0
20260506192552 15 0.0 0.0 0.00 0.00 0.00 10 1011.0
20260506191603 15 0.0 0.0 0.00 0.00 0.00 10 1010.9
20260506190547 15 0.0 0.0 0.00 0.00 0.00 10 1010.9
20260506185548 15 0.0 0.0 0.00 0.00 0.00 10 1010.8
20260506184547 15 0.0 0.0 0.00 0.00 0.00 10 1010.7
20260506183547 15 0.0 0.0 0.00 0.00 0.00 10 1010.6
20260506182547 15 0.0 0.0 0.00 0.00 0.00 10 1010.6
20260506181547 15 0.0 0.0 0.00 0.00 0.00 10 1010.5
20260506180547 15 0.0 0.0 0.00 0.00 0.00 10 1010.5
20260506175547 15 0.0 0.0 0.00 0.00 0.00 10 1010.5
20260506174547 15 0.0 0.0 0.00 0.00 0.00 10 1010.6
20260506173547 15 0.0 0.0 0.00 0.00 0.00 10 1010.6
20260506172547 15 0.0 0.0 0.00 0.00 0.00 10 1010.5
20260506171547 15 0.0 0.0 0.00 0.00 0.00 10 1010.5
20260506170547 15 0.0 0.0 0.00 0.00 0.00 10 1010.2
20260506165547 15 0.0 0.0 0.00 0.00 0.00 10 1010.3
20260506164547 15 0.0 0.0 0.00 0.00 0.00 10 1010.3
20260506163547 15 0.0 0.0 0.00 0.00 0.00 10 1010.4
20260506162547 15 0.0 0.0 0.00 0.00 0.00 10 1010.4
20260506161546 15 0.0 0.0 0.00 0.00 0.00 10 1010.4
20260506160602 15 0.0 0.0 0.00 0.00 0.00 10 1010.2
20260506155546 15 0.0 0.0 0.00 0.00 0.00 10 1010.2
20260506154547 15 0.0 0.0 0.00 0.00 0.00 10 1010.1
20260506153552 15 0.0 0.0 0.00 0.00 0.00 10 1010.2
20260506152547 15 0.0 0.0 0.00 0.00 0.00 10 1010.3
20260506151546 15 0.0 0.0 0.00 0.00 0.00 10 1010.4
20260506150547 15 0.0 0.0 0.00 0.00 0.00 10 1010.6
20260506145617 15 0.0 0.0 0.00 0.00 0.00 10 1010.4
20260506144546 15 0.0 0.0 0.00 0.00 0.00 10 1010.5
20260506143546 16 0.0 0.0 0.00 0.00 0.00 10 1010.2
20260506142546 16 0.0 0.0 0.00 0.00 0.00 10 1010.3
20260506141551 16 0.0 0.0 0.00 0.00 0.00 10 1010.4
20260506140551 16 0.0 0.0 0.00 0.00 0.00 10 1010.5
20260506135546 16 0.0 0.0 0.00 0.00 0.00 10 1010.5
20260506134546 15 0.0 0.0 0.00 0.00 0.00 10 1010.6
20260506133546 15 0.0 0.0 0.00 0.00 0.00 10 1010.7
20260506132546 16 0.0 0.0 0.00 0.00 0.00 10 1010.8
20260506131546 16 0.0 0.0 0.00 0.00 0.00 10 1010.8
20260506130546 16 0.0 0.0 0.00 0.00 0.00 10 1010.8
20260506125546 16 0.0 0.0 0.00 0.00 0.00 10 1010.9